Location: Morisset
(33.1080°S, 151.4871°E)
Time: 09:09:40
(UTC+00:00)

CZ-4C R/B - Pass Details

Date: 29 October 2020
Orbit: 463 x 635 km, 98.0° (Epoch: 27 November)

Event Time Altitude Azimuth Distance (km) Brightness Sun altitude
Rises 16:51:10 0° 170° (S) 2,965 7.7 -24.2°
Reaches altitude 10° 16:53:25 10° 171° (S) 2,042 6.8 -23.9°
Maximum altitude 16:57:53 78° 255° (WSW) 647 3.4 -23.1°
Enters shadow 16:58:05 76° 289° (WNW) 651 3.4 -23.1°
